Zurück zum Katalog

COSMOS 2251 DEB

AktivLEO
NORAD 34028·DEBRIS·🇷🇺 Russia

Gestartet Jun 16, 1993 von Plesetsk Cosmodrome

Loading…

Nächste Überflüge (nächste 24 Stunden)

TLE

AktuellSource: Space-Track

Epoche: Sep 14, 2026, 01:46 UTC

1 34028U 93036HP  26257.07400361  .00000243  00000-0  29538-3 0  9990
2 34028  73.8800 284.9927 0545129  16.3815  12.5928 13.20820597846435

Verfolge COSMOS 2251 DEB in Echtzeit mit AllMySat

Download on the App Store